Lid_Strength_Index
2 4 5 7 12 13 15 13 14 14 14 14 13 12 11 12 11 14 11 8 6 5 4 1 -1 -0 0 1 1 1 1 1 1 0 -0 -0 -1 -1 -1 -1 -1 -1 -1 -1 -1 -2 -2 -2 -2
3 3 6 10 14 16 14 13 14 13 13 13 13 14 14 14 13 12 10 8 5 4 3 2 -1 -0 0 1 1 1 2 1 1 1 0 -0 -0 -1 -1 -1 -1 -1 -1 -1 -0 -1 -1 -2 -2
4 5 9 12 16 16 15 14 14 14 14 14 14 13 14 14 13 11 10 7 5 5 4 2 -0 -0 1 1 1 2 2 2 2 1 0 0 0 -0 -0 -0 -0 -0 -0 -0 0 0 -0 -0 -1
5 9 10 13 15 13 13 13 14 14 14 14 14 14 14 13 12 10 9 6 6 6 4 1 0 0 1 1 2 2 2 2 2 1 1 1 1 0 0 1 0 0 0 0 0 1 1 1 0
7 11 14 16 16 14 13 14 14 14 15 15 14 15 14 13 12 9 7 6 6 6 5 3 1 1 1 2 2 2 2 2 2 2 2 1 1 1 1 1 1 1 1 1 1 1 1 1 1
10 11 16 18 17 13 13 14 14 15 15 15 15 14 15 14 11 9 7 7 6 6 5 4 1 2 2 2 3 3 3 2 2 2 2 2 2 2 2 2 2 2 2 2 2 2 2 2 2
11 13 16 16 15 14 14 14 15 15 16 15 14 15 15 14 12 9 8 8 7 7 6 6 5 4 2 3 3 4 3 3 3 3 4 4 4 3 3 3 3 3 3 3 3 3 3 3 3
10 11 14 15 15 15 14 14 14 15 15 15 14 15 15 14 12 10 9 9 8 8 8 8 8 8 8 7 4 4 4 4 4 4 5 6 6 5 4 5 4 4 4 4 4 4 5 5 5
11 14 17 16 14 15 14 14 14 14 15 16 15 15 13 13 11 11 11 11 10 9 9 10 10 10 9 9 6 5 4 5 6 7 6 9 10 10 9 6 6 6 5 5 5 5 6 7 7
13 16 16 13 14 15 14 14 14 15 16 16 15 13 13 13 11 11 12 12 11 11 10 10 11 11 10 8 10 10 10 11 11 12 12 11 12 10 10 9 8 7 7 7 7 7 8 10 12
13 15 13 13 13 13 14 14 14 16 16 15 15 14 14 15 14 12 12 12 11 11 11 11 12 12 11 11 12 11 12 12 12 12 12 12 12 13 13 13 13 14 11 14 13 14 13 14 13
15 14 13 13 14 14 15 14 15 15 15 15 14 13 13 14 14 13 12 12 12 12 12 11 12 12 12 12 12 12 12 12 12 12 12 13 13 13 13 14 14 14 14 14 14 14 14 14 13
15 14 14 14 14 15 14 15 16 15 13 14 13 13 13 14 14 14 13 13 13 13 12 12 12 12 12 12 12 12 12 12 12 12 12 12 13 13 13 13 14 14 14 14 15 15 14 14 14
14 14 14 14 14 14 14 14 14 14 13 14 13 14 14 14 14 14 14 14 13 13 13 12 12 12 12 12 12 12 12 12 12 12 12 12 13 13 13 14 14 14 14 14 15 15 15 15 14
13 14 13 14 13 14 15 15 15 14 13 13 14 14 14 14 14 14 13 13 13 13 12 12 12 11 11 12 12 12 12 11 12 12 12 12 12 13 13 14 14 14 14 15 15 15 15 15 14
14 14 16 15 13 13 13 16 13 13 13 13 13 15 13 13 13 13 13 13 13 12 12 12 10 11 11 11 11 11 11 12 12 12 12 11 12 13 14 14 14 14 14 15 15 15 16 15 15
15 18 16 15 13 14 14 15 13 12 14 15 15 15 15 14 13 13 12 12 12 12 12 12 11 11 11 11 11 11 12 11 12 12 12 11 11 12 14 14 14 14 15 15 15 16 16 16 15
17 17 17 17 15 14 16 15 14 13 15 17 16 16 15 15 13 12 12 12 12 12 12 12 11 11 12 12 12 13 13 12 12 12 12 11 12 12 14 14 14 14 15 15 15 16 16 17 16
16 17 17 16 15 15 17 16 14 13 16 16 16 16 16 16 14 13 12 12 12 12 12 12 12 12 12 13 13 13 13 13 13 12 12 12 12 13 14 14 15 15 15 16 16 16 17 16 15
15 17 17 16 15 16 17 16 15 15 17 17 16 16 16 16 14 13 13 13 13 12 12 12 12 12 12 12 12 13 13 13 13 12 12 12 12 13 13 15 15 15 16 16 16 16 17 17 16
16 17 18 17 16 17 17 17 16 16 17 16 16 16 16 16 15 14 13 13 13 13 13 12 12 12 12 12 12 13 13 13 13 13 13 12 12 13 13 14 15 15 16 16 17 17 17 18 17
17 16 16 16 18 21 17 21 17 17 17 17 17 17 16 16 15 14 14 13 13 13 13 12 11 11 11 12 12 13 13 14 14 14 13 13 13 13 13 14 15 15 16 16 16 16 17 18 18
16 15 16 17 21 22 19 21 17 17 17 18 17 17 17 16 15 14 14 13 13 13 13 12 12 12 12 12 12 13 14 14 14 14 14 14 14 14 14 14 15 15 16 17 17 17 17 17 18
15 15 17 18 20 23 24 21 18 17 16 18 18 17 16 16 16 14 14 13 14 13 13 12 12 13 13 13 13 13 14 14 15 15 15 15 15 15 15 14 15 15 16 16 17 17 17 17 18
16 18 23 23 24 22 21 22 17 17 18 17 17 17 17 16 16 15 14 14 14 13 13 13 13 13 13 13 14 14 14 15 15 15 15 15 15 16 15 15 15 16 16 16 17 17 18 18 18
17 19 22 26 24 22 19 22 18 18 18 17 15 15 14 15 16 15 15 14 13 13 13 12 13 13 13 13 14 14 14 15 15 15 15 15 15 15 15 15 15 15 15 16 17 17 17 18 17
17 19 18 23 21 26 20 19 17 19 18 17 15 14 15 15 15 15 14 14 13 13 13 13 13 13 13 13 14 14 13 13 14 14 14 14 14 14 14 15 15 15 16 16 16 17 17 18 17
17 17 20 23 26 25 22 23 19 21 18 17 17 17 16 15 15 15 14 13 13 12 13 13 13 13 13 13 13 13 13 13 13 14 14 14 14 14 14 14 15 15 15 15 16 17 17 17 17
19 23 21 20 21 24 26 22 19 19 18 17 18 17 17 17 16 15 15 14 13 14 13 13 14 14 13 13 13 13 13 13 13 14 13 13 13 13 14 14 14 14 14 15 16 16 16 16 16
20 21 21 21 24 19 20 21 17 20 20 21 20 17 16 16 16 16 15 14 14 14 13 14 14 14 14 13 13 13 13 14 14 14 14 13 13 13 13 13 13 14 14 14 14 14 14 15 15